When you browse on this site, cookies collect data to enhance your experience and personalize the content and advertising you see.
Visit our Privacy Policy to learn more. By continuing to use the site, you agree to this use of cookies and data.
  • In Austria
  • List of Countries
  • For 7 days
  • Water Temperature
  • Weather Map
  • News
  • Weather Widgets
  • user-avatar
    Login

    Hourly Weather Ghazni

    Today, 17 February, Monday

    Time Temperature Precipitation Wind Pressure Humidity
    00:00 -8°C° 0 mm 2 mps 585 mmHg 34%
    01:00 -8°C° 0 mm 2 mps 585 mmHg 34%
    02:00 -9°C° 0 mm 2 mps 585 mmHg 35%
    03:00 -9°C° 0 mm 2 mps 585 mmHg 34%
    04:00 -9°C° 0 mm 2 mps 584 mmHg 33%
    05:00 -8°C° 0 mm 2 mps 584 mmHg 31%
    06:00 -8°C° 0 mm 2 mps 585 mmHg 30%
    07:00 -8°C° 0 mm 2 mps 585 mmHg 29%
    08:00 -8°C° 0 mm 2 mps 586 mmHg 29%
    09:00 -6°C° 0 mm 2 mps 586 mmHg 39%
    10:00 -3°C° 0 mm 2 mps 587 mmHg 49%
    11:00 +1°C° 0 mm 1 mps 588 mmHg 63%
    12:00 +2°C° 0 mm 1 mps 588 mmHg 69%
    13:00 +2°C° 0 mm 1 mps 587 mmHg 75%
    14:00 +2°C° 0 mm 0 mps 587 mmHg 81%
    15:00 +1°C° 0 mm 0 mps 587 mmHg 73%
    16:00 +2°C° 0 mm 1 mps 586 mmHg 65%
    17:00 +1°C° 0 mm 1 mps 586 mmHg 58%
    18:00 0°C° 0 mm 1 mps 585 mmHg 54%
    19:00 -1°C° 0 mm 1 mps 585 mmHg 50%
    20:00 -2°C° 0 mm 1 mps 585 mmHg 46%
    21:00 -4°C° 0 mm 2 mps 585 mmHg 45%
    22:00 -5°C° 0 mm 2 mps 585 mmHg 43%
    23:00 -5°C° 0 mm 2 mps 585 mmHg 41%

    Tomorrow, 18 February, Tuesday

    Time Temperature Precipitation Wind Pressure Humidity
    00:00 -5°C° 0 mm 2 mps 584 mmHg 40%
    01:00 -5°C° 0 mm 2 mps 584 mmHg 40%
    02:00 -4°C° 0 mm 1 mps 584 mmHg 40%
    03:00 -4°C° 0 mm 1 mps 583 mmHg 40%
    04:00 -4°C° 0 mm 1 mps 583 mmHg 39%
    05:00 -4°C° 0 mm 1 mps 582 mmHg 39%
    06:00 -4°C° 0 mm 1 mps 582 mmHg 39%
    07:00 -4°C° 0 mm 1 mps 582 mmHg 39%
    08:00 -4°C° 0 mm 1 mps 583 mmHg 39%
    09:00 -2°C° 0 mm 1 mps 583 mmHg 47%
    10:00 0°C° 0 mm 1 mps 584 mmHg 56%
    11:00 0°C° 0 mm 0 mps 584 mmHg 65%
    12:00 +1°C° 0 mm 0 mps 584 mmHg 70%
    13:00 +1°C° 0 mm 0 mps 583 mmHg 76%
    14:00 +1°C° 0 mm 0 mps 582 mmHg 82%
    15:00 0°C° 0 mm 0 mps 582 mmHg 76%
    16:00 0°C° 0 mm 0 mps 581 mmHg 70%
    17:00 -1°C° 0 mm 0 mps 580 mmHg 65%
    18:00 -2°C° 0 mm 0 mps 580 mmHg 61%
    19:00 -3°C° 0 mm 1 mps 580 mmHg 58%
    20:00 -4°C° 0 mm 1 mps 580 mmHg 54%
    21:00 -4°C° 0 mm 1 mps 580 mmHg 54%
    22:00 -4°C° 0 mm 1 mps 580 mmHg 55%
    23:00 -6°C° 0 mm 2 mps 580 mmHg 55%

    Day after tomorrow, 19 February, Wednesday

    Time Temperature Precipitation Wind Pressure Humidity
    00:00 -7°C° 0 mm 2 mps 580 mmHg 56%
    01:00 -7°C° 0 mm 2 mps 580 mmHg 57%
    02:00 -7°C° 0 mm 2 mps 579 mmHg 58%
    03:00 -7°C° 0 mm 2 mps 579 mmHg 58%
    04:00 -8°C° 0 mm 2 mps 579 mmHg 58%
    05:00 -7°C° 0 mm 1 mps 578 mmHg 58%
    06:00 -7°C° 0 mm 1 mps 578 mmHg 58%
    07:00 -7°C° 0 mm 1 mps 578 mmHg 58%
    08:00 -7°C° 0 mm 1 mps 579 mmHg 58%
    09:00 -6°C° 0 mm 1 mps 579 mmHg 60%
    10:00 -3°C° 0 mm 1 mps 580 mmHg 61%
    11:00 -1°C° 0 mm 1 mps 580 mmHg 63%
    12:00 0°C° 0 mm 1 mps 580 mmHg 67%
    13:00 0°C° 0 mm 1 mps 580 mmHg 71%
    14:00 0°C° 0 mm 0 mps 580 mmHg 75%
    15:00 0°C° 0 mm 1 mps 580 mmHg 78%
    16:00 0°C° 0 mm 1 mps 580 mmHg 80%
    17:00 -3°C° 0 mm 2 mps 580 mmHg 82%
    18:00 -3°C° 0.3 mm 2 mps 580 mmHg 85%
    19:00 -3°C° 0.3 mm 2 mps 581 mmHg 87%
    20:00 -3°C° 0.3 mm 2 mps 582 mmHg 89%
    21:00 -4°C° 0.1 mm 2 mps 582 mmHg 86%
    22:00 -4°C° 0.1 mm 2 mps 582 mmHg 83%
    23:00 -4°C° 0.1 mm 2 mps 583 mmHg 81%

    20 February, Thursday

    Time Temperature Precipitation Wind Pressure Humidity
    00:00 -5°C° 0 mm 2 mps 582 mmHg 79%
    01:00 -5°C° 0 mm 2 mps 582 mmHg 77%
    02:00 -6°C° 0 mm 2 mps 582 mmHg 75%
    03:00 -6°C° 0.1 mm 2 mps 582 mmHg 78%
    04:00 -7°C° 0.1 mm 3 mps 582 mmHg 80%
    05:00 -7°C° 0.1 mm 3 mps 581 mmHg 83%
    06:00 -7°C° 0 mm 3 mps 582 mmHg 81%
    07:00 -7°C° 0 mm 3 mps 583 mmHg 79%
    08:00 -6°C° 0 mm 3 mps 583 mmHg 78%
    09:00 -5°C° 0 mm 3 mps 584 mmHg 80%
    10:00 -2°C° 0 mm 3 mps 584 mmHg 82%
    11:00 -1°C° 0 mm 3 mps 584 mmHg 85%
    12:00 0°C° 0 mm 3 mps 584 mmHg 88%
    13:00 0°C° 0 mm 3 mps 584 mmHg 92%
    14:00 +1°C° 0 mm 3 mps 583 mmHg 96%
    15:00 +1°C° 0 mm 3 mps 583 mmHg 91%
    16:00 +1°C° 0 mm 3 mps 583 mmHg 86%
    17:00 0°C° 0 mm 4 mps 583 mmHg 81%
    18:00 -1°C° 0 mm 4 mps 583 mmHg 78%
    19:00 -3°C° 0 mm 4 mps 584 mmHg 75%
    20:00 -4°C° 0 mm 3 mps 584 mmHg 72%
    21:00 -4°C° 0 mm 3 mps 584 mmHg 72%
    22:00 -5°C° 0 mm 3 mps 584 mmHg 71%
    23:00 -5°C° 0 mm 3 mps 584 mmHg 71%

    21 February, Friday

    Time Temperature Precipitation Wind Pressure Humidity
    00:00 -5°C° 0 mm 3 mps 584 mmHg 71%
    01:00 -6°C° 0 mm 3 mps 583 mmHg 71%
    02:00 -6°C° 0 mm 3 mps 583 mmHg 71%
    03:00 -6°C° 0 mm 3 mps 583 mmHg 70%
    04:00 -6°C° 0 mm 3 mps 583 mmHg 69%
    05:00 -6°C° 0 mm 3 mps 583 mmHg 68%
    06:00 -5°C° 0 mm 2 mps 583 mmHg 67%
    07:00 -4°C° 0 mm 2 mps 584 mmHg 65%
    08:00 -4°C° 0 mm 2 mps 584 mmHg 63%
    09:00 -3°C° 0 mm 2 mps 585 mmHg 71%
    10:00 +1°C° 0 mm 1 mps 585 mmHg 78%
    11:00 +3°C° 0 mm 1 mps 586 mmHg 86%
    18:00 +3°C° 0 mm 1 mps 584 mmHg 67%
    19:00 +2°C° 0 mm 1 mps 585 mmHg 65%
    20:00 +2°C° 0 mm 1 mps 585 mmHg 63%
    21:00 +2°C° 0 mm 1 mps 585 mmHg 66%
    22:00 +1°C° 0 mm 1 mps 585 mmHg 69%
    23:00 +1°C° 0 mm 1 mps 586 mmHg 71%

    22 February, Saturday

    Time Temperature Precipitation Wind Pressure Humidity
    00:00 +1°C° 0 mm 1 mps 585 mmHg 72%
    01:00 0°C° 0 mm 1 mps 585 mmHg 72%
    02:00 0°C° 0 mm 1 mps 585 mmHg 73%
    03:00 0°C° 0 mm 1 mps 585 mmHg 75%
    04:00 0°C° 0 mm 1 mps 585 mmHg 78%
    05:00 0°C° 0 mm 1 mps 585 mmHg 80%
    06:00 -1°C° 0 mm 1 mps 585 mmHg 80%
    07:00 -1°C° 0 mm 1 mps 585 mmHg 79%
    08:00 -1°C° 0 mm 1 mps 585 mmHg 79%
    09:00 0°C° 0 mm 1 mps 586 mmHg 85%
    10:00 +1°C° 0 mm 1 mps 586 mmHg 90%
    11:00 +3°C° 0 mm 1 mps 587 mmHg 95%
    12:00 +3°C° 0 mm 1 mps 587 mmHg 96%
    13:00 +3°C° 0 mm 1 mps 586 mmHg 97%
    14:00 +3°C° 0 mm 1 mps 586 mmHg 98%
    15:00 +3°C° 0 mm 1 mps 586 mmHg 94%
    16:00 +2°C° 0 mm 0 mps 585 mmHg 90%
    17:00 +2°C° 0 mm 0 mps 585 mmHg 86%
    18:00 +2°C° 0 mm 1 mps 585 mmHg 85%
    19:00 +1°C° 0 mm 1 mps 585 mmHg 83%
    20:00 +1°C° 0 mm 1 mps 585 mmHg 82%
    21:00 0°C° 0 mm 1 mps 585 mmHg 81%
    22:00 -2°C° 0 mm 2 mps 585 mmHg 79%
    23:00 -2°C° 0 mm 2 mps 585 mmHg 77%
    Show more